Regional Weather Roundup
Issued by NWS

Home | Current Version | Previous Version | Text Only | Print | Product List | Glossary Off
Versions: 1 2 3 4 5 6 7 8 9 10 11 12 13 14 15 16 17 18 19 20 21 22 23 24 25 26 27 28 29 30 31 32 33 34 35 36 37 38 39 40 41 42 43 44 45 46 47 48 49 50

000
ASUS45 KBOU 011210
RWRCO

WEATHER ROUNDUP FOR COLORADO
NATIONAL WEATHER SERVICE DENVER/BOULDER CO
600 AM MDT WED JUL 01 2015

NOTE: "FAIR" INDICATES FEW OR NO CLOUDS BELOW 12000 FEET WITH NO
SIGNIFICANT WEATHER AND/OR OBSTRUCTIONS TO VISIBILITY.

COZ001>005-013-030-031-011300-
...NORTHWEST COLORADO...

CITY           SKY/WX    TMP DP  RH WIND       PRES   REMARKS
CRAIG          PTCLDY    51  46  83 CALM      30.24R
HAYDEN         PTCLDY    57  46  67 E10       30.26R
MEEKER         PTCLDY    53  46  77 CALM      30.25R
MOUNT WERNER   NOT AVBL
STEAMBOAT SPGS PTCLDY    53  47  80 CALM      30.28R
WALDEN         CLEAR     50  46  87 CALM      30.37R
$$

COZ006>008-011-011300-
...WEST CENTRAL VALLEYS...

CITY           SKY/WX    TMP DP  RH WIND       PRES   REMARKS
GRAND JUNCTION MOCLDY    66  45  46 E5        30.09R
MONTROSE       PTCLDY    63  47  55 S6        30.18R
EAGLE          PTCLDY    54  48  82 SE5       30.30R
RIFLE          MOCLDY    63  47  55 CALM      30.17R
DELTA          PTCLDY    68  48  47 E6        30.14R
NUCLA          PTCLDY    61  45  55 SE8       30.21R
$$

COZ017>023-064>068-011300-
...SOUTHWEST COLORADO...

CITY           SKY/WX    TMP DP  RH WIND       PRES   REMARKS
DURANGO        CLOUDY    64  51  62 E6        30.26R
CORTEZ         CLEAR     77  45  32 N6        30.16R
PAGOSA SPRINGS CLOUDY    57  56  96 CALM      30.36R
TELLURIDE      MOCLDY    62  39  41 CALM      30.45R
WOLF CREEK PAS NOT AVBL
$$

COZ009-010-012-014-032>034-037-058>063-011300-
...CENTRAL COLORADO...

CITY           SKY/WX    TMP DP  RH WIND       PRES   REMARKS
ASPEN          PTCLDY    53  43  68 CALM      30.34R
BUENA VISTA    CLEAR     54  48  80 CALM      30.38R
COPPER MTN     PTCLDY    54  36  50 W8        30.67S
BERTHOUD PASS  FAIR      45  36  70 NW22G30   30.71S
COTTONWOOD PAS NOT AVBL
GUNNISON       PTCLDY    54  45  71 NE3       30.38R
KREMMLING      MOCLDY    50  43  76 CALM      30.37R
LEADVILLE      PTCLDY    45  40  82 CALM      30.50R
MONARCH PASS   PTCLDY    48  37  66 SW17      30.76R
SALIDA         CLEAR     58  51  75 W6        30.41R
SUNLIGHT       MOCLDY    59  37  44 N3        30.59S
WILKERSON PASS CLEAR     54  37  54 W7        30.63R
$$

COZ069>075-011300-
...SAN LUIS VALLEY/SANGRE DE CRISTO MOUNTAINS...

CITY           SKY/WX    TMP DP  RH WIND       PRES   REMARKS
ALAMOSA        CLOUDY    57  49  74 SE5       30.33S
LA VETA PASS   CLOUDY    52  43  71 MISG      30.49S
SAGUACHE       MOCLDY    50  45  81 NW5       30.40R
$$

COZ035-036-038>040-011300-
...NORTHERN COLORADO FRONT RANGE...

CITY           SKY/WX    TMP DP  RH WIND       PRES   REMARKS
DENVER INTL AP PTCLDY    66  54  65 W8        30.12R
DMNS CITY PARK   N/A     66  55  67 E6        30.12R
AURORA         MOCLDY    62  54  75 S8        30.14S
FRONT RANGE AP PTCLDY    63  55  77 W7        30.13R
ERIE MUNI ARPT MOCLDY    59  55  88 SW3       30.11S
BOULDER MUN AP MOCLDY    64  54  68 SW6       30.13R
CENTENNIAL     MOCLDY    62  53  72 S5        30.15R
BROOMFIELD     MOCLDY    68  50  52 NW9       30.15R
FORT COLLINS   PTCLDY    64  57  77 CALM      30.13R
LONGMONT       PTCLDY    65  55  71 CALM      30.13R
$$

COZ041-046-047-076>085-087-088-011300-
...PIKES PEAK/PALMER DIVIDE AND SOUTHERN FOOTHILLS...

CITY           SKY/WX    TMP DP  RH WIND       PRES   REMARKS
COLO. SPRINGS  PTCLDY    63  50  62 N9        30.18R
A. F. ACADEMY  PTCLDY    62  47  56 NW6       30.20R
ELLICOTT       CLEAR    N/A N/A N/A CALM      30.16R
FALCON         PTCLDY    61  47  58 NW5       30.24R
FORT CARSON    PTCLDY    62  52  71 N10       30.14R
LIMON          MOCLDY    61  57  87 NW3       30.11R
MONUMENT HILL  PTCLDY    59  46  63 SW12      30.24S
TRINIDAD       CLOUDY    68  49  50 W5        30.16R
$$

COZ042>045-048>051-090-091-011300-
...NORTHEAST COLORADO...

CITY           SKY/WX    TMP DP  RH WIND       PRES   REMARKS
GREELEY ARPT   PTCLDY    63  55  77 W3        30.10R
AKRON          MOCLDY    65  56  72 W12       30.06R
BURLINGTON     MOCLDY    67  55  65 W9        30.01R
WRAY           PTCLDY    67  55  66 W5        29.98R
STERLING       MOCLDY    63  55  77 W3          N/A
HOLYOKE        PTCLDY    72  57  60 W6        29.98R
FORT MORGAN    MOCLDY    62  58  84 W7        30.07R
$$

COZ086-089-092>099-011300-
...SOUTHEAST COLORADO...

CITY           SKY/WX    TMP DP  RH WIND       PRES   REMARKS
PUEBLO         PTCLDY    68  53  58 W7        30.06R
LA JUNTA       CLOUDY    70  55  59 W6        30.03R
LAMAR          MOCLDY    66  58  75 SW6       29.97R
SPRINGFIELD      N/A     65  49  56 W6        30.02R
$$



USA.gov is the U.S. government's official web portal to all federal, state and local government web resources and services.